Погода в Эммабоде

Швеция     56°38′02″N   15°32′38″E
темп.,
°C
ветер,
м/с
пор.,
м/с
влажн.,
%
обл.,
%
осадки,
мм/ч
давл.,
гПа
погр.,
м
6 мая, чт
чт623:00+4ю2498100 0.1 990191
02:00+4юз279999 0.3 990350
05:00+4зюз3898100 1.1 990788
08:00+4з3597100 1.4 992603
11:00+4з2496100 0.2 993490
14:00+4сз2496100 0.5 996737
17:00+4зсз3594100 0.6 997635
20:00+4зсз2497100 0.9 999622
7 мая, пт
пт723:00+3сз139899 0.2 1001435
02:00+2ссз1398100 0.5 1001275
05:000с229790 0.0 100251
08:00+3св248078 0.0 1003430
11:00+8ссв234799 0.1 10041817
14:00+9ссз2247100 0.5 10041564
17:00+7зсз3466100 1.1 10051035
20:00+5зсз3786100 2.8 1006380
8 мая, сб
сб823:00+4з399344 0.4 1008339
02:00+1з269810 0.4 1009143
05:000зсз259811 0.0 1010109
08:00+5з358710 0.0 1011370
11:00+7з4672100 0.6 10111135
14:00+11з6736100 0.6 10112788
17:00+9з585385 0.1 10121669
20:00+8з495268 0.1 1013740
9 мая, вс
вс923:00+4зюз267799 0.0 1014129
02:00+3ю2681100 0.0 1013138
05:00+5ю41370100 0.0 1012625
08:00+5ююв51392100 1.0 10091074
11:00+5ю51397100 1.3 1008664
14:00+15ююз5107074 1.3 1007998
17:00+17ююз5965100 0.0 1007868
20:00+12ююз4128097 0.0 1008464
10 мая, пн
пн1023:00+10ю31282100 0.0 1008276
02:00+10ю41489100 0.0 1009341
05:00+9ю4149695 0.0 1008349
08:00+13ю51574100 0.0 1009477
11:00+17ююз51056100 0.0 1009546
14:00+19ю5751100 0.0 1009653
17:00+18ююз58514 0.0 1010877
20:00+15ю377080 0.0 1010320